COSMOS 2251 DEB

Satellite information

Favourite Embed

Satellite Type and Status

DEBRISIN ORBIT

Key statistics

Satellite COSMOS 2251 DEB at a glance.

Uptime

11868

Days in orbit

Revolutions

≈ 14.0

Per day

Orbit

LEO

Low Earth Orbit

Inclination

74.0

Latest

Satellite identification and parameters

Extended collection of information and parameters for COSMOS 2251 DEB.

Object identification

Identified? True

Debris? True

Object name: COSMOS 2251 DEB

International designator: 1993-036XP

Object number (NORAD): 34642

Object ID (CCSDS): 34642

Country: COMMONWEALTH OF INDEPENDENT STATES (CIS)

Current information (Y/N): Y

RCS size: SMALL

Orbital parameters

Period: 102.933 minutes

Inclination: 74.0053 deg

SMA: 7275.522 km

Apoapsis: 1048.28 km

Periapsis: 746.493 km

RAAN: 343.733 deg

Eccentricy: 0.02073989

Argument of periapsis: 164.1427 deg

Mean anomaly: 350.8698 deg

Mean motion: 13.98964055 rev/day

Mean motion (dot): 0.00002102 rev/day2

B* drag term: 0.0012238481 1/REarth

Two-line elements (TLE)

Creation date: Dec. 10, 2025, 7:58 p.m.

Reference frame: TEME

Reference center: EARTH

Epoch: Dec. 10, 2025, 11:16 a.m. UTC

TLE line 0: 0 COSMOS 2251 DEB

TLE line 1: 1 34642U 93036XP 25344.46989927 .00002102 00000-0 12238-2 0 9995

TLE line 2: 2 34642 74.0053 343.7330 0207399 164.1427 350.8698 13.98964055852619

Live tracking on map

Real-time ground track for satellite COSMOS 2251 DEB.

In-orbit conjunctions

A list of the most updated potential collisions computed for object COSMOS 2251 DEB.

Target Orbit TCA Probability of collision Miss distance Type
CZ-6A DEB SSO 2025-11-22 10:44:01 0.0004056003 81.0 (m) DEBRIS
CZ-6A DEB LEO 2025-01-16 10:40:51 0.0001820488 304.0 (m) DEBRIS
CZ-6A DEB LEO 2024-12-08 07:14:13 0.0001629516 472.0 (m) DEBRIS

Associated space launch

Military communications satellite. Destroyed in a collision with Iridium 33.

COSMOS 2251 DEB was lifted into orbit during the mission ‘Kosmos-3M | Strela-2M 51’, on board a Kosmos-3M space rocket.

The launch took place on June 16, 1993, 4:17 a.m. from 132/1 (132L).

For more information about the launch, click the button.

Launch to space Kosmos-3M | Strela-2M 51
Kosmos-3M | Strela-2M 51

Agency: N/A

Status: Launch Successful

Launch date: June 16, 1993, 4:17 a.m. UTC

Rocket: Kosmos-3M

Launch pad: 132/1 (132L)

Location: Plesetsk Cosmodrome, Russian Federation

...

Latest news about this satellite

There are no fresh news available about this satellite. Check back as we update our databases every day.


Newsletter sign-up

Weekly statistics, charts and insights to help you stay on top of the space industry.